Total_Precipitation_Accumulation
2.21 2.45 2.41 2.24 2.32 2.44 2.66 2.86 3.01 2.78 2.60 2.41 2.08 1.85 1.90 2.07 2.27 2.03 2.02 1.97 1.73 1.67 1.57 1.47 1.39 1.44 1.60 1.82 2.02 2.22 2.50 2.72 2.93 3.13 3.27 3.46 3.72 4.05
2.26 2.46 2.40 2.30 2.38 2.44 2.60 2.89 3.19 3.18 2.74 2.24 2.06 1.96 2.13 2.13 2.29 1.99 1.92 2.01 1.78 1.60 1.47 1.42 1.36 1.36 1.43 1.58 1.75 1.92 2.09 2.23 2.42 2.60 2.76 2.91 3.03 3.30
2.15 2.30 2.36 2.47 2.54 2.54 2.65 2.80 3.08 3.32 2.96 2.37 2.27 2.28 2.43 2.40 2.28 2.04 1.82 1.74 1.58 1.54 1.39 1.31 1.27 1.31 1.37 1.43 1.56 1.71 1.80 1.91 2.10 2.29 2.47 2.63 2.71 2.87
2.17 2.32 2.21 2.40 2.58 2.52 2.63 2.65 2.79 3.14 2.99 2.69 2.63 2.58 2.56 2.46 2.45 2.28 1.95 1.75 1.69 1.70 1.47 1.35 1.30 1.26 1.29 1.32 1.42 1.59 1.73 1.80 1.84 1.89 1.97 2.12 2.33 2.54
2.18 2.18 2.14 2.33 2.35 2.47 2.59 2.57 2.58 2.74 2.93 2.83 2.77 2.85 2.80 2.67 2.62 2.43 2.23 2.18 1.85 1.76 1.68 1.57 1.55 1.52 1.47 1.45 1.46 1.52 1.63 1.76 1.85 1.94 2.01 2.10 2.18 2.28
2.18 2.13 2.08 2.11 2.17 2.29 2.39 2.50 2.58 2.72 2.87 2.88 2.91 3.03 3.00 3.03 3.04 2.81 2.66 2.57 2.22 1.82 1.85 1.73 1.68 1.58 1.48 1.40 1.38 1.43 1.54 1.73 1.90 1.98 2.02 2.09 2.16 2.17
2.18 2.07 1.93 1.97 2.04 2.09 2.02 2.18 2.35 2.48 2.54 2.63 2.73 2.96 3.01 3.11 3.09 2.95 2.82 2.84 2.65 2.17 2.00 1.87 1.80 1.69 1.65 1.60 1.50 1.43 1.45 1.56 1.75 1.88 1.95 2.00 2.08 2.10
2.18 2.11 1.97 1.88 1.86 1.81 1.70 1.73 1.86 2.01 2.21 2.46 2.55 2.76 2.96 3.11 3.33 3.36 3.20 3.02 2.86 2.57 2.47 2.31 2.05 1.95 1.76 1.60 1.59 1.39 1.26 1.29 1.37 1.51 1.65 1.80 1.92 2.07
2.07 2.07 1.82 1.68 1.78 1.70 1.69 1.66 1.67 1.80 1.93 2.19 2.38 2.49 2.75 2.97 3.24 3.35 3.36 3.25 3.07 2.92 2.78 2.65 2.32 2.07 1.83 1.70 1.65 1.38 1.22 1.15 1.13 1.18 1.26 1.40 1.53 1.69
1.91 1.95 1.92 1.85 1.85 1.90 1.80 1.67 1.57 1.65 1.76 1.73 1.79 1.98 2.27 2.68 2.89 2.93 3.12 3.16 3.02 2.84 2.77 2.72 2.44 2.21 1.97 1.86 1.79 1.47 1.30 1.23 1.19 1.13 1.10 1.16 1.28 1.40
1.80 1.81 1.80 1.75 1.87 1.76 1.66 1.63 1.60 1.62 1.61 1.59 1.54 1.59 1.74 2.00 2.37 2.55 2.66 2.63 2.51 2.26 2.16 2.22 2.18 2.16 2.09 1.96 1.79 1.66 1.44 1.27 1.20 1.19 1.16 1.14 1.20 1.29
1.81 1.76 1.69 1.57 1.58 1.54 1.51 1.61 1.59 1.59 1.66 1.59 1.47 1.39 1.35 1.52 1.88 2.07 2.19 2.25 2.14 2.06 1.80 1.78 1.81 1.90 2.00 1.83 1.68 1.64 1.57 1.53 1.40 1.26 1.20 1.18 1.29 1.25
1.73 1.72 1.64 1.61 1.42 1.37 1.36 1.38 1.41 1.43 1.55 1.59 1.54 1.48 1.47 1.49 1.58 1.80 2.02 2.15 2.12 1.90 1.77 1.80 1.79 1.82 1.84 1.75 1.67 1.60 1.61 1.67 1.64 1.58 1.53 1.51 1.55 1.48
1.71 1.66 1.67 1.59 1.37 1.29 1.22 1.20 1.25 1.22 1.25 1.37 1.37 1.31 1.32 1.35 1.44 1.62 1.85 2.01 2.08 1.91 1.84 1.89 1.87 1.84 1.82 1.67 1.53 1.44 1.45 1.60 1.75 1.86 1.86 1.92 1.91 1.96
1.61 1.65 1.60 1.46 1.26 1.10 1.09 1.08 1.03 0.99 1.10 1.21 1.22 1.14 1.13 1.19 1.30 1.48 1.66 1.85 1.88 1.79 1.68 1.76 1.83 1.84 1.83 1.67 1.49 1.41 1.42 1.45 1.55 1.77 2.00 2.12 2.09 2.12
1.62 1.59 1.46 1.38 1.21 1.09 1.10 1.03 0.96 1.01 1.11 1.15 1.19 1.19 1.17 1.20 1.24 1.32 1.47 1.63 1.72 1.62 1.55 1.59 1.75 1.94 1.87 1.70 1.65 1.51 1.47 1.46 1.41 1.57 1.90 2.19 2.38 2.46
1.87 1.74 1.59 1.47 1.32 1.20 1.17 1.20 1.23 1.28 1.26 1.25 1.32 1.36 1.34 1.27 1.24 1.30 1.51 1.60 1.59 1.52 1.55 1.60 1.68 1.90 1.94 1.83 1.74 1.57 1.55 1.50 1.45 1.58 1.81 1.97 2.15 2.36
1.76 1.61 1.56 1.49 1.41 1.39 1.43 1.45 1.45 1.45 1.41 1.43 1.44 1.48 1.47 1.38 1.31 1.34 1.49 1.58 1.56 1.50 1.52 1.59 1.81 2.05 2.11 1.87 1.52 1.46 1.50 1.49 1.51 1.71 1.85 1.84 1.87 1.97
1.66 1.63 1.61 1.60 1.53 1.51 1.54 1.54 1.48 1.46 1.52 1.53 1.53 1.54 1.61 1.64 1.62 1.57 1.57 1.68 1.69 1.66 1.59 1.64 1.82 1.99 1.97 1.71 1.44 1.31 1.45 1.58 1.71 1.80 1.89 1.84 1.75 1.80
1.54 1.61 1.61 1.62 1.63 1.62 1.60 1.59 1.57 1.58 1.58 1.59 1.64 1.69 1.78 1.84 1.88 1.82 1.76 1.76 1.80 1.84 1.83 1.79 1.78 1.84 1.93 1.86 1.71 1.57 1.48 1.61 1.79 1.85 1.84 1.84 1.80 1.82
1.49 1.50 1.50 1.51 1.54 1.57 1.56 1.56 1.55 1.58 1.60 1.66 1.69 1.73 1.80 1.83 1.80 1.77 1.79 1.86 1.90 1.98 1.92 1.72 1.67 1.82 2.02 2.22 2.02 1.69 1.57 1.57 1.64 1.74 1.83 1.93 1.94 1.94
1.45 1.43 1.45 1.45 1.49 1.53 1.57 1.58 1.59 1.61 1.67 1.75 1.77 1.79 1.85 1.84 1.79 1.80 1.88 1.94 1.91 1.90 1.91 1.87 1.98 2.09 2.15 2.16 1.94 1.75 1.75 1.80 1.82 1.84 1.85 1.79 1.75 1.71
1.45 1.44 1.42 1.37 1.37 1.43 1.47 1.51 1.54 1.62 1.66 1.73 1.79 1.84 1.88 1.87 1.83 1.87 1.95 2.02 2.05 2.06 2.15 2.19 2.18 2.15 2.05 2.01 1.98 1.89 1.85 1.97 2.06 2.04 1.93 1.74 1.44 1.22